User: anonymous
Location: Owatonna
(44.0840°N, 93.2260°W)
Time: 01:04:19
(UTC-05:00)
Language:

Cosmos 1500 Rocket - Orbit

View from above orbital plane
View from above orbital plane
View from above satellite
View from above satellite

Ground track
Ground track

The orbit data is extracted from the following two-line orbital elements,

1 14373U 83099B   14261.67036847  .00000370  00000-0  42418-4 0  7623
2 14373 082.5380 101.1857 0018900 294.9574 131.4955 14.83141648672246
Epoch (UTC): 18 September 2014 16:05:19
Eccentricity: 0.0018900
inclination: 82.5380°
perigee height: 606 km
apogee height: 632 km
right ascension of ascending node: 101.1857°
argument of perigee: 294.9574°
revolutions per day: 14.83141648
mean anomaly at epoch: 131.4955°
orbit number at epoch: 67224

The dashed part of the orbit path shows where the satellite is in the earth's shadow,  

DLR